Flag for Belarus Weather past 2 weeks in Barysaw, Belarus

Now
28 °F

Light freezing rain. Ice fog.


Feels Like: 25 °F
Forecast: 26 / 32 °F
Wind: 3 mph from South

Location: Minsk

Current Time: Jan 26, 2015 at 10:15:31 PM

Latest Report: Jan 26, 2015 at 9:30 PM


Visibility: 2 mi

Pressure: 30.07 "Hg

Humidity: 100%

Dew point: 28 °F

Location of BarysawLocation

Historic Weather in Barysaw — Graph

°F

Barysaw temperature yesterday

Maximum temperature yesterday: 32 °F (at 12:00 AM)
Minimum temperature yesterday: 19 °F (at 9:30 PM)
Average temperature yesterday: 27 °F

Past Weeks' High & Low Weather Summary

 TemperatureHumidityPressure
High39 °F (Jan 13, 11:30 AM)100% (Jan 12, 4:00 AM)30.24 "Hg (Jan 12, 4:00 AM)
Low19 °F (Jan 25, 9:30 PM)69% (Jan 12, 11:30 AM)29.15 "Hg (Jan 11, 9:00 PM)
Average31 °F95%29.99 "Hg
* Reported Jan 11 9:00 PM — Jan 26 9:00 PM, Barysaw, Weather by CustomWeather, © 2014

Note: Actual official high and low records may vary slightly from our data, if they occured in-between our weather recording intervals... More about our weather records

Advertising

Barysaw weather history for previous 24 hours

 ConditionsComfort  
Time TempWeatherWind HumidityBarometerVisibility
9:00 PM
Jan 26
28 °FLight freezing rain. Ice fog.3 mph100%30.09 "Hg1 mi
8:30 PM28 °FLight freezing rain. Ice fog.3 mph100%30.09 "Hg1 mi
8:00 PM28 °FLight freezing rain. Ice fog.3 mph100%30.09 "Hg1 mi
7:30 PM28 °FLight freezing rain. Ice fog.1 mph100%30.09 "Hg2 mi
7:00 PM28 °FLight freezing rain. Ice fog.1 mph100%30.09 "Hg2 mi
6:30 PM28 °FLight freezing rain. Ice fog.3 mph100%30.09 "Hg2 mi
6:00 PM28 °FLight freezing rain. Ice fog.3 mph100%30.09 "Hg2 mi
5:56 PM28 °FLight freezing rain. Ice fog.3 mph100%30.09 "Hg2 mi
5:30 PM28 °FIce fog.3 mph100%30.09 "Hg3 mi
5:00 PM28 °FIce fog.3 mph100%30.09 "Hg3 mi
4:30 PM28 °FIce fog.3 mph100%30.09 "Hg3 mi
4:00 PM28 °FIce fog.1 mph100%30.09 "Hg2 mi
3:30 PM27 °FIce fog.3 mph100%30.09 "Hg1 mi
3:00 PM27 °FIce fog.1 mph100%30.12 "Hg1 mi
2:30 PM27 °FIce fog.3 mph100%30.12 "Hg2 mi
2:00 PM27 °FIce fog.1 mph100%30.12 "Hg2 mi
1:30 PM27 °FIce fog.3 mph100%30.12 "Hg2 mi
1:00 PM25 °FIce fog.1 mph100%30.12 "Hg1 mi
12:30 PM25 °FIce fog.No wind100%30.15 "Hg2 mi
12:00 PM25 °FIce fog.No wind100%30.12 "Hg2 mi
11:30 AM23 °FIce fog.1 mph100%30.15 "Hg1 mi
11:00 AM23 °FLight freezing rain. Ice fog.3 mph100%30.15 "Hg1 mi
10:49 AM23 °FLight freezing rain. Ice fog.3 mph100%30.15 "Hg2 mi
10:30 AM23 °FLight freezing rain. Ice fog.1 mph100%30.15 "Hg2 mi
10:00 AM23 °FLight freezing rain. Ice fog.3 mph93%30.15 "Hg2 mi
9:30 AM21 °FLight freezing rain. Ice fog.3 mph100%30.15 "Hg2 mi
9:00 AM21 °FLight freezing rain. Ice fog.3 mph100%30.12 "Hg2 mi
8:30 AM21 °FIce fog.3 mph100%30.12 "Hg2 mi
8:00 AM21 °FIce fog.3 mph100%30.12 "Hg2 mi
7:30 AM21 °FIce fog.3 mph100%30.12 "Hg2 mi
7:00 AM21 °FIce fog.3 mph100%30.12 "Hg2 mi
6:30 AM21 °FIce fog.3 mph93%30.12 "Hg2 mi
6:00 AM21 °FIce fog.3 mph93%30.12 "Hg3 mi
5:30 AM21 °FIce fog.3 mph93%30.12 "Hg2 mi
5:00 AM19 °FIce fog.1 mph100%30.15 "Hg3 mi
4:30 AM19 °FIce fog.3 mph100%30.15 "Hg3 mi
4:00 AM19 °FIce fog.3 mph100%30.12 "Hg3 mi
3:30 AM19 °FIce fog.1 mph100%30.12 "Hg3 mi
3:00 AM19 °FIce fog.1 mph100%30.12 "Hg3 mi
2:30 AM19 °FIce fog.3 mph100%30.12 "Hg3 mi
2:00 AM19 °FIce fog.No wind100%30.12 "Hg3 mi
1:30 AM19 °FIce fog.3 mph100%30.15 "Hg3 mi
1:00 AM19 °FIce fog.3 mph100%30.15 "Hg3 mi
12:30 AM19 °FLow clouds.6 mph100%30.15 "Hg4 mi
12:00 AM19 °FLow clouds.6 mph100%30.15 "Hg4 mi
11:30 PM
Jan 25
19 °FLow clouds.8 mph100%30.15 "Hg4 mi
11:00 PM19 °FIce fog.8 mph100%30.15 "Hg3 mi
10:30 PM19 °FIce fog.8 mph100%30.15 "Hg3 mi
10:00 PM19 °FLow clouds.8 mph100%30.15 "Hg4 mi
Weather by CustomWeather, © 2014

See weather overviewHow to use our weather pages